Location: Ariel
(45.9570°N, 122.5700°W)
Time: 07:17:25
(UTC-08:00)

Transit 4A - Pass Details

Date: 30 October 2020
Orbit: 862 x 982 km, 66.8° (Epoch: 03 December)

Event Time Altitude Azimuth Distance (km) Brightness Sun altitude
Rises 20:51:44 0° 319° (NW) 3,687 11.7 -30.5°
Reaches altitude 10° 20:56:29 10° 350° (N) 2,745 10.6 -31.4°
Maximum altitude 20:58:44 12° 11° (N) 2,612 10.2 -31.7°
Enters shadow 20:59:00 12° 13° (NNE) 2,614 10.2 -31.8°
